Location: Plymouth
(43.7490°N, 87.9770°W)
Time: 08:27:47
(UTC-05:00)

Daily predictions for brighter satellites

Satellite Brightness Start Highest point End
(mag) Time Altitude Azimuth Time Altitude Azimuth Time Altitude Azimuth
Cosmos 1536 3.8 20:02:15 10° SSW 20:06:10 53° W 20:10:08 10° N
H-2A R/B 4.0 20:05:03 10° E 20:06:29 12° ENE 20:07:54 10° NE
Meteor 2-15 Rocket 4.4 20:00:57 10° N 20:07:02 69° E 20:13:03 10° SSE
Meteor 2-14 Rocket 4.5 20:00:55 10° S 20:07:02 77° E 20:13:12 10° NNE
Cosmos 1626 Rocket 4.2 20:03:14 10° N 20:07:19 36° ENE 20:11:20 10° SE
Cosmos 1892 Rocket 3.8 20:03:21 10° N 20:07:51 80° W 20:12:19 10° S
ATLAS CENTAUR R/B 4.3 20:04:52 10° W 20:08:56 25° NW 20:12:58 10° NNE
Meteor 1-29 3.8 20:08:54 10° N 20:12:19 56° WNW 20:15:43 10° SSW
Cosmos 1455 Rocket 3.0 20:08:48 10° S 20:13:05 72° E 20:17:27 10° NNE
Cosmos 2123 Rocket 4.0 20:09:49 10° N 20:16:02 77° E 20:22:11 10° SSE
Cosmos 1602 Rocket 3.9 20:12:22 10° N 20:16:41 45° ENE 20:20:55 10° SSE
RESURS DK-1 3.8 20:13:59 10° N 20:17:21 23° NE 20:20:28 11° ESE
Cosmos 2084 3.8 20:16:20 10° NNW 20:20:13 45° NE 20:23:56 12° ESE
CZ-4 DEB 3.8 20:22:56 12° SE 20:25:20 28° ENE 20:28:05 10° N
Cosmos 220 Rocket 3.9 20:23:17 10° NNW 20:27:30 65° ENE 20:31:41 10° SSE
Cosmos 1743 4.3 20:26:38 13° ESE 20:28:29 17° E 20:31:07 10° NE
SL-24 R/B - RUBIN 2 4.5 20:26:38 10° SSW 20:32:19 55° ESE 20:38:38 10° NE
Cosmos 1697 Rocket 3.1 20:29:56 10° S 20:35:08 39° ESE 20:40:21 10° NE
OAO 2 Rocket 4.4 20:30:58 10° SW 20:35:17 29° S 20:38:27 16° ESE
Cosmos 2278 4.1 20:36:54 10° SSW 20:42:34 71° WNW 20:48:17 10° NNE
Resurs 01 Rocket 4.0 20:40:49 10° SSW 20:44:23 24° W 20:47:59 10° NW
Cosmos 1153 Rocket 4.4 20:41:10 10° S 20:47:19 73° E 20:53:27 10° NNE
ALOS 3.3 20:44:51 10° S 20:49:21 47° W 20:53:53 10° NNW
EO 1 Delta rocket 4.4 20:47:09 10° N 20:51:48 68° WNW 20:57:05 10° SSW
H-2A R/B 3.9 20:48:45 10° S 20:52:29 45° W 20:56:17 10° NNW
Cosmos 1975 2.9 20:48:47 10° S 20:52:54 83° W 20:57:01 10° N
Cosmos 2369 4.3 20:51:07 10° SW 20:56:44 61° WNW 21:02:24 10° NNE
USA 186 3.2 20:54:12 10° SSW 20:57:04 34° W 20:59:46 10° NNW
Cosmos 1980 Rocket 2.7 20:53:03 10° S 20:58:12 37° ESE 21:03:23 10° NE
Lacrosse 5 rocket 2.4 20:56:00 10° WNW 20:59:20 32° SW 21:01:42 16° S
Cosmos 2298 Rocket 4.0 20:54:20 10° NNW 20:59:41 87° WSW 21:04:08 15° SSE
Cosmos 1802 Rocket 4.3 20:56:39 10° SSE 21:02:45 49° E 21:08:54 10° NNE
Envisat 3.0 21:00:26 19° SSE 21:04:03 64° ENE 21:09:06 10° N
OTV 4 3.0 21:04:20 10° SW 21:05:11 11° SSW 21:05:33 11° SSW
Iridium 4 Rocket 3.5 21:00:51 10° N 21:05:57 73° W 21:10:33 10° S
Cosmos 1937 Rocket 3.5 21:00:41 10° NNW 21:05:58 72° ENE 21:09:16 23° SSE
Cosmos 1726 Rocket 4.1 21:14:23 34° ESE 21:15:12 38° E 21:19:16 10° NNE
Cosmos 1666 4.0 21:16:27 23° ENE 21:16:27 23° ENE 21:18:44 10° NNE
Cosmos 2016 Rocket 4.1 21:11:10 17° SSE 21:15:38 51° E 21:21:36 10° NNE
Cosmos 990 Rocket 4.0 21:13:12 10° NNW 21:18:28 68° ENE 21:20:53 32° SE
H-2A R/B 3.7 21:17:51 16° ENE 21:18:33 17° ENE 21:21:38 10° NNE
Tiangong 1 1.1 21:16:17 10° W 21:19:20 57° SSW 21:19:22 57° S
Cosmos 972 Rocket 4.5 21:14:11 10° NNW 21:20:08 87° WSW 21:24:52 20° SSE
Cosmos 1656 4.1 21:17:30 10° SW 21:23:04 65° WNW 21:28:37 10° NNE
Cosmos 2263 Rocket 3.7 21:19:39 10° N 21:23:44 20° NE 21:25:29 18° ENE
Cosmos 2227 Rocket 4.1 21:21:03 10° NW 21:25:38 26° WSW 21:30:11 10° SSW
Cosmos 2150 Rocket 4.4 21:20:39 10° NNW 21:25:42 58° WSW 21:29:13 20° S
Cosmos 1500 4.1 21:22:48 10° SSW 21:26:27 49° W 21:30:08 10° N
Cosmos 1825 Rocket 3.5 21:23:26 10° N 21:27:53 87° E 21:29:39 36° S
Cosmos 2173 Rocket 4.0 21:21:39 10° S 21:28:01 86° E 21:34:23 10° N
Cosmos 1939 Rocket 3.3 21:25:53 24° S 21:28:14 63° W 21:32:23 10° NNW
Cosmos 2322 Rocket 3.4 21:32:37 24° ENE 21:32:37 24° ENE 21:35:43 10° NE
ERS-1 Rocket 3.6 21:28:09 15° S 21:32:10 54° W 21:37:07 10° NNW
Meteor 1-21 4.2 21:27:13 10° N 21:33:01 81° ENE 21:35:56 31° SSE
Cosmos 2098 Rocket 4.1 21:29:39 26° SSE 21:33:20 53° E 21:38:56 10° NNE
BREEZE-M DEB (TANK) 4.1 21:29:35 10° WNW 21:33:27 81° NNE 21:39:15 27° ESE
Lacrosse 5 2.0 21:29:21 10° NW 21:34:22 64° SW 21:36:04 39° SSE
Cosmos 1340 2.6 21:32:24 10° N 21:36:13 86° W 21:36:49 62° S
SPOT 1/Viking Rocket 3.9 21:36:07 41° ESE 21:37:20 49° ENE 21:42:22 10° N
Cosmos 1953 Rocket 3.5 21:33:43 10° N 21:38:11 82° E 21:39:18 51° SSE
YAOGAN 6 2.6 21:38:50 66° ENE 21:38:50 66° ENE 21:42:28 10° N
Cosmos 967 Rocket 4.4 21:34:13 10° NNW 21:40:37 86° ENE 21:43:06 40° SE
Cosmos 2297 Rocket 4.0 21:36:17 10° NW 21:40:56 27° WSW 21:45:35 10° SSW
SPOT 5 2.8 21:39:47 40° SSE 21:41:37 89° ENE 21:46:28 10° NNW
Cosmos 2100 Rocket 4.2 21:35:31 10° SSW 21:41:46 70° W 21:48:01 10° N
H-2A R/B 2.0 21:40:46 46° S 21:41:54 72° WSW 21:46:03 10° NNW
Cosmos 2360 4.2 21:38:33 20° S 21:42:29 61° ESE 21:48:08 10° NNE
Meteor 2-9 Rocket 4.2 21:41:32 44° SE 21:42:48 54° E 21:48:04 10° NNE
PSLV R/B 4.4 21:45:36 36° N 21:45:36 36° N 21:47:36 10° N
Cosmos 1763 Rocket 3.3 21:41:43 20° SSW 21:45:20 80° ESE 21:50:26 10° NNE
Cosmos 2227 4.1 21:42:26 10° NNW 21:48:13 89° WSW 21:50:02 46° SSE
Cosmos 2061 Rocket 4.3 21:42:42 10° SSW 21:48:59 68° W 21:55:14 10° N
Tsikada Rocket 4.0 21:42:59 10° N 21:49:24 65° E 21:51:22 44° SE
Cosmos 1125 Rocket 3.6 21:45:50 10° NNW 21:50:57 54° ENE 21:51:36 51° E
Cosmos 405 Rocket 4.4 21:48:08 10° NNE 21:50:05 22° NE 21:50:05 22° NE
Nimbus 7 Rocket 4.5 21:46:53 10° NNE 21:52:59 83° WNW 21:58:48 11° SSW
Cosmos 2228 3.7 21:54:37 40° NE 21:54:37 40° NE 21:57:42 10° NNE
RESURS DK-1 3.6 21:51:42 10° NW 21:55:30 35° WSW 21:56:25 31° SW
MetOp-A 4.2 21:54:40 42° S 21:56:30 76° WSW 22:01:54 10° NNW
Cosmos 1758 Rocket 3.6 21:52:35 10° NNW 21:56:57 73° W 21:57:29 64° SSW
deb Chang Zheng 4 4.1 21:53:51 10° N 21:58:15 60° WNW 22:00:40 25° SW
Cosmos 1743 4.3 22:01:45 18° SW 22:04:04 33° WNW 22:07:40 10° N
USA 215 3.6 22:03:14 36° E 22:05:44 57° NNE 22:12:07 10° NW
Cosmos 841 Rocket 3.6 22:04:54 26° SSW 22:07:54 76° WNW 22:13:09 10° NNE
Terra 2.8 22:11:26 35° NE 22:11:26 35° NE 22:15:07 10° N
Cosmos 1816 Rocket 4.4 22:04:36 10° N 22:11:01 74° E 22:12:13 59° SE
BREEZE-M DEB (TANK) 3.3 22:09:49 10° WNW 22:11:27 39° W 22:11:27 39° W
Cosmos 1725 Rocket 3.9 22:12:55 41° SSW 22:15:15 84° W 22:21:33 10° N
SL-19 R/B 4.1 22:11:59 10° NNE 22:17:30 86° WNW 22:18:29 61° SSW
Cosmos 1697 Rocket 4.3 22:14:03 10° WSW 22:19:09 34° NW 22:24:16 10° N
Meteor 2-17 Rocket 4.3 22:20:18 69° ESE 22:20:39 71° E 22:26:41 10° NNE
Cosmos 2058 Rocket 3.7 22:22:16 50° WSW 22:22:44 53° WNW 22:27:11 10° N
Cosmos 540 Rocket 4.3 22:25:35 38° NE 22:25:35 38° NE 22:28:50 10° NNE
SL-16 R/B 2.3 22:28:05 61° ENE 22:28:05 61° ENE 22:32:54 10° NNE
NOAA 11 4.3 22:27:55 60° SW 22:28:34 65° WSW 22:34:02 10° NNW
ARGOS 3.5 22:35:03 55° WSW 22:35:31 57° W 22:40:50 10° NNW
Cosmos 372 Rocket 4.1 22:30:44 10° NNW 22:35:15 68° N 22:35:15 68° N
BREEZE-M DEB (TANK) 3.1 22:29:13 10° WSW 22:38:01 77° WNW 22:38:01 77° WNW
Cosmos 2233 Rocket 3.8 22:39:50 77° SSW 22:40:20 87° W 22:46:37 10° N
Cosmos 1980 Rocket 3.6 22:37:00 10° WSW 22:42:12 36° NW 22:47:26 10° N
Cosmos 2360 Rocket 4.0 22:45:50 20° NE 22:45:50 20° NE 22:47:43 10° NE
H-2A R/B 2.6 22:58:29 52° NW 22:58:29 52° NW 23:02:24 10° NNW
CZ-4B R/B 4.4 22:56:40 10° N 23:01:01 41° WNW 23:01:01 41° WNW
Meteor 2-5 Rocket 3.9 22:55:32 10° NNW 23:00:57 71° NW 23:00:57 71° NW
Cosmos 2263 Rocket 2.6 23:02:41 10° NNW 23:07:11 57° NW 23:07:11 57° NW
Cosmos 2322 Rocket 3.0 23:14:22 45° WNW 23:14:50 47° WNW 23:20:16 10° NNE
Meteor 1-24 Rocket 4.2 23:14:34 10° N 23:19:32 62° N 23:19:32 62° N
Cosmos 1464 Rocket 4.3 23:26:05 66° N 23:26:05 66° N 23:31:31 10° N
Terra 4.0 23:50:19 20° WNW 23:50:19 20° WNW 23:52:29 10° NW
USA 215 4.1 23:50:35 40° W 23:50:35 40° W 23:55:08 10° WNW
